Regional Weather Roundup
Issued by NWS

Home | Current Version | Previous Version | Graphics & Text | Print | Product List | Glossary On
Versions: 1 2 3 4 5 6 7 8 9 10 11 12 13 14 15 16 17 18 19 20 21 22 23 24 25 26 27 28 29 30 31 32 33 34 35 36 37 38 39 40 41 42 43 44 45 46 47 48 49 50
000
ASUS43 KDMX 280307
RWRIA

WEATHER ROUNDUP FOR IOWA
NATIONAL WEATHER SERVICE DES MOINES IA
1000 PM CDT FRI MAR 27 2015

NOTE: "FAIR" INDICATES FEW OR NO CLOUDS BELOW 12,000 FEET WITH NO
SIGNIFICANT WEATHER AND/OR OBSTRUCTIONS TO VISIBILITY.

* - THESE STATIONS ARE NOT NWS STATIONS...THUS NOT UNDER NWS
QUALITY CONTROL.  THEY ALSO DO NOT REPORT WEATHER SUCH
AS PRECIPITATION OR FOG.

IAZ001>003-012>014-020>022-031>034-043>046-280400-
   NORTHWEST IOWA

CITY           SKY/WX    TMP DP  RH WIND       PRES   REMARKS
CARROLL *      CLOUDY    34  19  55 SW7       30.12S WCI  28
CHEROKEE *     CLOUDY    34  21  60 SE7       30.11S WCI  28
DENISON *      MIX PCPN  34  21  60 S6        30.09S WCI  29
LE MARS *      MIX PCPN  34  25  69 S8        30.09S WCI  27
ORANGE CITY *  FLURRIES  34  23  64 SE3       30.09R
SHELDON *      CLOUDY    32  23  69 E9        30.09R WCI  24
SIOUX CITY     CLOUDY    34  23  64 S9        30.09S WCI  27
SPENCER        CLOUDY    32  21  64 SW6       30.13R WCI  26
STORM LAKE *   MIX PCPN  32  21  64 S7        30.11S WCI  26
$$

IAZ055>058-069>071-079>083-090>094-280400-
   SOUTHWEST IOWA

CITY           SKY/WX    TMP DP  RH WIND       PRES   REMARKS
ATLANTIC *     CLOUDY    36  23  60 S6        30.13S WCI  31
AUDUBON *      PTCLDY    34  19  55 CALM      30.14S
CLARINDA *     CLOUDY    36  23  60 CALM      30.17F
COUNCIL BLFS * CLOUDY    36  21  55 SE7       30.11F WCI  30
CRESTON *      CLOUDY    34  21  60 S5        30.14S WCI  30
HARLAN  *      CLOUDY    34  23  64 S5        30.15S WCI  30
LAMONI         CLOUDY    37  16  42 CALM      30.15R
RED OAK *      CLOUDY    36  23  60 S5        30.14S WCI  32
SHENANDOAH *   CLOUDY    37  25  60 SE7       30.15S WCI  32
$$

IAZ047>049-059>061-072>074-084-280400-
   CENTRAL IOWA

CITY           SKY/WX    TMP DP  RH WIND       PRES   REMARKS
AMES           MOCLDY    29  14  53 E3        30.15S
ANKENY *       CLOUDY    32  14  47 CALM      30.16S
CHARITON *     CLOUDY    34  12  40 E6        30.16S WCI  29
DES MOINES     CLOUDY    37  10  32 SE7       30.16S WCI  32
GRINNELL*      PTCLDY    30  14  51 CALM      30.17F
KNOXVILLE *    CLOUDY    34  10  37 E3        30.15F
MARSHALLTOWN   MOCLDY    29  15  56 SE3       30.16S
PELLA *        MOCLDY    32  16  51 CALM      30.18S
PERRY *          N/A     32  19  59 SE7       30.14S WCI  26
$$

IAZ004>006-015-016-023>025-035-036-280400-
   NORTH CENTRAL IOWA

CITY           SKY/WX    TMP DP  RH WIND       PRES   REMARKS
ALGONA *       CLOUDY    32  21  64 SE7       30.14R WCI  26
CLARION *      MOCLDY    30  21  69 E6        30.15R WCI  24
ESTHERVILLE    CLOUDY    32  20  61 CALM      30.12R
FORT DODGE *   CLOUDY    30  18  59 E8        30.14S WCI  23
MASON CITY     MOCLDY    27  17  66 E7        30.18R WCI  19
FOREST CITY *  CLEAR     28  21  74 E9        30.15S WCI  20
IOWA FALLS *     N/A     30  21  69 E3        30.16S
$$

IAZ007>011-017>019-026>030-037>042-050>054-066-280400-
   NORTHEAST IOWA

CITY           SKY/WX    TMP DP  RH WIND       PRES   REMARKS
CEDAR RAPIDS   CLEAR     30  12  47 NE5       30.18R WCI  25
CHARLES CITY * CLOUDY    23  16  74 E7        30.18S WCI  15
CLINTON *      CLEAR     23  12  63 NE5       30.23R WCI  17
DECORAH *      CLEAR     23  10  58 CALM      30.17S
DUBUQUE        CLEAR     22  11  62 CALM      30.19R
MONTICELLO *   CLEAR     27  16  63 CALM      30.20R
OELWEIN *      CLEAR     23  14  68 E5        30.19S WCI  17
WATERLOO       CLEAR     23  17  78 E5        30.19R WCI  17
$$

IAZ064-065-067-068-078-280400-
   EAST CENTRAL IOWA

CITY           SKY/WX    TMP DP  RH WIND       PRES   REMARKS
DAVENPORT      CLEAR     25  11  55 E6        30.20R WCI  18
IOWA CITY      CLEAR     26  12  55 CALM      30.21R
MT. PLEASANT * CLEAR     27  12  54 E3        30.20R
MUSCATINE *    CLEAR     28  14  54 CALM      30.21R
QUAD CITIES    CLEAR     25  17  72 CALM      30.20R
$$

IAZ062-063-075>077-085>089-095>099-280400-
   SOUTHEAST IOWA

CITY           SKY/WX    TMP DP  RH WIND       PRES   REMARKS
BURLINGTON     CLEAR     28  14  55 CALM      30.19R
FAIRFIELD *    PTCLDY    28  10  47 CALM      30.19R
FORT MADISON * CLEAR     28  12  50 CALM      30.20S
KEOKUK *       CLEAR     30  16  55 CALM      30.19R
OSKALOOSA *      N/A     30  10  43 CALM      30.19R
CENTERVILLE *  MOCLDY    32  12  43 E5        30.18S WCI  27
OTTUMWA        PTCLDY    28  12  51 E5        30.17S WCI  23
WASHINGTON *   CLEAR     27  12  54 CALM      30.19R
$$

ABBREVIATIONS USED IN REMARKS
   TC - TEMPERATURES IN CELSIUS
  WCI - WIND CHILL INDEX
   HX - HEAT INDEX
  VSB - VISIBILITY
$$




USA.gov is the U.S. government's official web portal to all federal, state and local government web resources and services.